www.pogodaiklimat.ru

Погода и климат >> Архив погоды >> Канада >> Grand Etang


ПОГОДА в Grand Etang

  • Прогноз погоды в Grand Etang
  • Монитор погоды в Grand Etang
  • Климат города

АРХИВ ПОГОДЫ в Grand Etang

Время (UTC), дата Ветер
(напр.,м/с)
 
Видим.   Явления Облачность Т
(С)
Тd
(С)
f
(%)
Тe
(С)
Тes
(С)
Комфортность P
(гПа)
Po
(гПа)
Тmin
(С)
Tmax
(С)
R
(мм)
R24
(мм)
S
(см)
03 16.10 Ю 8 4800 м слаб. снег 10/10 300 м
[]
-9.5 -11.1 88 -19 -19 1005.0 998.8
06 16.10 Ю 9 2400 м слаб. снег 10/10 300 м
[]
-8.5 -9.7 91 -18 -18 1004.0 997.8 -11.6 -8.5 161
09 16.10 З 6 16 км 10/10 300 м
[]
-9.2 -10.1 93 -18 -18 1004.2 998.0
12 16.10 З 3 16 км ясно -14.6 -15.5 93 -21 -21 1005.5 999.3 -15.8 -8.5
15 16.10 ЮЗ 3 2000 м дымка 9/9 1000 м
[]
-11.2 -12.1 93 -17 -16 1006.3 1000.1
18 16.10 ЮЗ 9 14 км слаб. снег 10/10 600 м
[]
-7.2 -9.9 81 -17 -17 1006.2 1000.0 -15.8 -7.2
21 16.10 З 5 16 км 3/3 200 м
[]
-8.6 -9.8 91 -16 -16 1007.2 1001.0
00 17.10 С 3 6000 м дымка ясно -13.7 -14.6 93 -20 -20 1009.0 1002.7 -15.8 -7.1
03 17.10 СВ 1 16 км ясно -11.6 -12.4 94 -14 -14 1009.4 1003.2
06 17.10 ЮЗ 1 16 км 10/10 300 м
[]
-10.2 -11.0 94 -13 -13 1009.8 1003.6 -15.8 -7.1 191
09 17.10 З 3 16 км 10/10 300 м
[]
-9.5 -10.3 94 -15 -15 1010.2 1004.0
12 17.10 ЮЗ 5 16 км 10/10 300 м
[]
-9.0 -10.4 90 -17 -17 1010.6 1004.3 -13.7 -7.1
15 17.10 ЮЗ 6 16 км 10/10 200 м
[]
-9.6 -10.8 91 -18 -18 1009.9 1003.7
18 17.10 Ю 7 16 км 3/3 300 м
[]
-8.6 -10.8 84 -17 -16 1009.8 1003.6 -14.4 -8.2
21 17.10 Ю 7 16 км 9/9 1000 м
[]
-9.9 -12.0 85 -19 -19 1009.5 1003.3
00 18.10 Ю 5 16 км 5/5 300 м
[]
-10.7 -11.9 91 -18 -18 1009.4 1003.2 -12.1 -8.2
03 18.10 Ю 5 16 км 10/10 1000 м
[]
-8.9 -10.7 87 -17 -17 1009.2 1003.0
06 18.10 ЮВ 7 16 км 5/5 1000 м
[]
-8.7 -11.9 78 -18 -18 1008.9 1002.7 -12.1 -8.2 201
09 18.10 ЮВ 7 16 км ясно -9.8 -11.5 87 -19 -19 1009.1 1002.9
12 18.10 ЮВ 8 16 км 9/0
[]
-11.1 -12.6 89 -21 -21 1009.1 1002.9 -11.2 -8.2
15 18.10 ЮВ 7 16 км 10/0
[]
-10.8 -12.1 90 -20 -20 1008.8 1002.6
18 18.10 ЮВ 8 16 км 10/10 200 м
[]
-10.4 -11.3 93 -20 -20 1008.6 1002.4 -11.3 -8.6
21 18.10 ЮВ 8 16 км 10/10 200 м
[]
-9.3 -10.0 95 -19 -19 1008.3 1002.1
00 19.10 В 8 16 км слаб. снег 10/10 300 м
[]
-8.4 -9.5 92 -18 -18 1008.1 1001.9 -11.3 -8.4
03 19.10 В 8 16 км слаб. снег 10/10 200 м
[]
-7.6 -8.4 94 -17 -17 1007.5 1001.3
06 19.10 В 5 16 км 10/10 200 м
[]
-7.0 -7.7 95 -15 -15 1007.6 1001.4 -11.3 -7.0 91
09 19.10 В 2 16 км 10/10 300 м
[]
-6.3 -6.8 96 -10 -10 1008.4 1002.2
12 19.10 В 1 3200 м дымка 10/10 100 м
[]
-6.0 -6.1 99 -9 -9 1008.9 1002.7 -8.4 -7.0
15 19.10 З 5 4800 м дымка 10/10 100 м
[]
-7.6 -8.1 96 -15 -15 1009.6 1003.4
18 19.10 З 4 1000 м дымка н/о -8.0 -8.5 96 -15 -15 1010.4 1004.2 -10.4 -5.8
21 19.10 Ю 4 8000 м дымка 10/10 200 м
[]
-8.4 -8.9 96 -15 -15 1011.2 1005.0
00 20.10 Ю 5 12 км 10/10 200 м
[]
-8.3 -8.8 96 -16 -16 1011.3 1005.1 -9.1 -5.8
03 20.10 Ю 5 4800 м дымка 10/10 50 м
[]
-6.4 -6.8 97 -14 -14 1011.0 1004.8
06 20.10 Ю 5 16 км 10/10 200 м
[]
-6.0 -6.4 97 -14 -14 1011.2 1005.0 -9.3 -5.2
09 20.10 Ю 7 16 км 10/10 300 м
[]
-7.4 -7.9 96 -16 -16 1010.9 1004.7
12 20.10 ЮЗ 6 16 км 10/10 200 м
[]
-7.2 -7.6 97 -16 -16 1011.3 1005.1 -9.3 -5.2
15 20.10 Ю 11 8000 м слаб. снег 10/10 300 м
[]
-5.3 -5.6 98 -16 -16 1010.9 1004.7
18 20.10 Ю 10 9000 м слаб. снег 10/10 300 м
[]
-4.1 -4.6 96 -14 -14 1010.9 1004.7 -9.3 -4.1
21 20.10 Ю 8 4000 м слаб. снег 10/10 200 м
[]
-3.2 -3.5 98 -12 -12 1010.4 1004.2
00 21.10 Ю 9 2800 м слаб. переохл. дождь (гололёд) 10/10 100 м
[]
-2.4 -2.5 99 -11 -11 1009.4 1003.2 -8.5 -2.4
03 21.10 Ю 11 3200 м слаб. снег 10/10 200 м
[]
-2.1 -2.4 98 -12 -12 1008.5 1002.4
06 21.10 Ю 11 2400 м слаб. снег 10/10 100 м
[]
-1.7 -1.8 99 -11 -11 1009.1 1003.0 -8.5 -1.7 161
09 21.10 Ю 12 3200 м слаб. снег 10/10 100 м
[]
-1.7 -2.0 98 -11 -11 1009.7 1003.6
12 21.10 Ю 11 16 км слаб. снег 10/10 100 м
[]
-1.7 -2.1 97 -11 -11 1009.7 1003.6 -2.5 -1.7
15 21.10 Ю 11 6000 м слаб. снег 10/10 300 м
[]
-1.6 -2.0 97 -11 -11 1009.7 1003.6
18 21.10 Ю 10 1600 м слаб. снег 10/10 100 м
[]
-1.6 -1.7 99 -11 -11 1009.7 1003.6 -4.1 -1.4
21 21.10 Ю 8 16 км {осадки} 10/10 300 м
[]
-1.3 -1.9 96 -9 -9 1008.4 1002.3
00 22.10 ЮВ 10 1600 м слаб. снег {осадки} н/о -1.6 -1.6 100 -11 -11 1006.1 1000.0 -1.8 +2.1 1
03 22.10 ЮВ 11 2000 м слаб. снег {осадки} 10/10 100 м
[]
-1.5 -1.6 99 -11 -11 1002.1 996.0
06 22.10 ЮВ 8 11 км {осадки} 10/10 100 м
[]
-1.2 -1.2 100 -9 -9 998.0 991.9 -1.8 +2.1 0.8 81
09 22.10 Ю 5 1000 м дымка {осадки} н/о -1.1 -1.1 100 -8 -8 995.6 989.6
12 22.10 ЮЗ 3 500 м переохл. туман н/о -1.2 -4 -4 994.8 988.8 -1.6 +2.1
15 22.10 З 5 1000 м дымка 10/10 200 м
[]
-2.2 -2.2 100 -9 -9 995.8 989.8
18 22.10 СЗ 5 16 км 9/9 100 м
[]
-4.0 -9 -9 997.4 991.3 -4.1 -0.9
21 22.10 СЗ 7 1200 м н/о -6.4 -14 -14 998.7 992.6

 

Местоположение метеостанции Grand Etang (Канада): широта 46.55 долгота -61.05 высота над уровнем моря 13 м.

В архиве по умолчанию представлена погода в Grand Etang за последнюю неделю. Архивные данные за месяц целиком и за предыдущие месяцы, начиная с января 2011 года, Вы можете получить, выбрав интересующий диапазон дат из раскрывающегося списка и нажав кнопку "Ввод!".

Внимание! Время в таблицах - всемирное. Для получения местного времени необходимо прибавить поправку, которая в Grand Etang равна -4 ч.

Смотрите также архив погоды в соседних городах и на ближайших метеорологических станциях:

Погода в Cheticamp (Канада) (13 км)
Погода в North Mountain (Канада) (42 км)
Погода в Ingonish Beach (Канада) (51 км)
Погода в East Point (Канада) (71 км)
Погода в Sydney (Канада) (88 км)
Погода в Sydney Rcs (Канада) (88 км)
Погода в St Paul Island (Канада) (103 км)
Погода в Port Hawkesbury (Канада) (103 км)
Погода в Lles de la Madelein (Канада) (111 км)
Погода в Lles de la Madelein (Канада) (111 км)

Пояснения к столбцам:

Ветер - указаны скорость ветра в м/с - средняя за 10 мин, порывы в срок и между сроками (в фигурных скобках) и направление, откуда дует ветер: С - северный, СВ - северо-восточный, В - восточный, ЮВ - юго-восточный, Ю - южный, ЮЗ - юго-западный, З - западный, СЗ - северо-западный.
Видимость - горизонтальная дальность видимости в метрах или километрах. При видимости от 1 до 10 км при отсутствии осадков обычно наблюдается дымка, при ухудшении видимости до 1 км и менее - туман. В сухую погоду видимость может ухудшаться дымом, пылью или мглою.
Явления - указаны атмосферные явления, наблюдавшиеся в срок или в последний час перед сроком; фигурными скобками обозначены явления, наблюдавшиеся между сроками (за 1-3 часа до срока); квадратными скобками обозначены град или гололедные отложения с указанием их диаметра в мм.
Облачность - указаны через наклонную черту общая и нижняя облачность в баллах и высота нижней границы облаков в метрах; квадратными скобками обозначены формы облаков: Ci - перистые, Cs - перисто-слоистые, Cc - перисто-кучевые, Ac - высококучевые, As - высокослоистые, Sc - слоисто-кучевые, Ns - слоисто-дождевые, Cu - кучевые, Cb - кучево-дождевые. Подробнее классификацию облаков см. в Атласе облаков (PDF).
T - Температура воздуха - температура, измеренная на высоте 2 м над землей.
Td - Температура точки росы - температура, при понижении до которой содержащийся в воздухе водяной пар достигнет насыщения.
f - Относительная влажность воздуха - влажноcть воздуха, измеренная на высоте 2 м над землей.
Te - Эффективная температура - температура, которую ощущает одетый по сезону человек в тени. Характеристика душности погоды. При расчете учитывается влияние влажности воздуха и скорости ветра на теплоощущения человека.
Tes - Эффективная температура на солнце - температура, которую ощущает человек, с поправкой на солнечный нагрев. Характеристика знойности погоды. Зависит от высоты солнца над горизонтом, облачности и скорости ветра. Ночью, в пасмурную погоду, а также при ветре 12 м/с и более поправка равна нулю.
P - Атмосферное давление - приведенное к уровню моря атмосферное давление.
Po - Атмосферное давление - измеренное на уровне метеостанции атмосферное давление.
Tmin - Минимальная температура - минимум температуры воздуха на высоте 2 м над землей.
Tmax - Максимальная температура - максимум температуры воздуха на высоте 2 м над землей.
R - Количество осадков - Количество выпавших осадков за период времени, мм. При наведении курсора мыши на число - период времени, за который выпало указанное количество осадков.
R24 - Количество осадков - Количество выпавших осадков за 24 часа, мм.
S - Снежный покров - Высота снежного покрова, см. При наведении курсора мыши на число - состояние снежного покрова и степень покрытия местности в баллах.